sat.trackr.live / text

‹ back to catalog

HULIANWANG DIGUI-130

NORAD 67238 · 2025-311C

PAYLOAD ACTIVE UNKNOWN

§ Identity

Operator
Country
PRC
Launch date
2025-12-25
Launch site
WSC
Launch vehicle
Mass (kg)
RCS (m²)

External: N2YO · Heavens-Above · Gunter

§ Orbital elements

Epoch: 2026-05-25T03:57:47.884320Z

Period
108.33 min
Inclination
50.0036°
Eccentricity
0.0001039
Mean motion
13.29322628 rev/d
Perigee alt
1,148.5 km
Apogee alt
1,150.1 km
Semi-major
7,527.5 km
B*
6.0628e-5
RAAN
198.5783°
Arg perigee
247.1804°
Mean anomaly
112.8958°
Rev number
2,027

§ Raw data

HULIANWANG DIGUI-1301 67238U 25311C   26145.16513755 -.00000096  00000+0  60628-4 0  99902 67238  50.0036 198.5783 0001039 247.1804 112.8958 13.29322628 20275

JSON: /api/v1/satellites/67238 · /tle

For live sub-satellite position, see the globe view (requires WebGL).

§ Visibility from observer

Set your observer location to see the next 7 days of passes ≥ 10°. The values pass through the URL so the page stays shareable.

No JS? Fill the form by hand. The geolocation button needs JavaScript.